Погода Екатерино-Никольское

Погода Екатерино-Никольское : погода сейчас, прогноз погоды и архив. Всё, что Вы хотите узнать о погоде Екатерино-Никольское!

Хотите узнать прогноз погоды Екатерино-Никольское? Тогда Вам сюда: Погода Екатерино-Никольское

Поиск расширенной информации на нашем сайте:

Другие новости

Новости СМИ2

Главная страница сайта

Новости сайта

02.10.2013

Напоминаем, что на нашем новом сайте вы можете получить высокодетализированные прогнозы погоды по пунктам России, СНГ и мира (включающие важные для авиации метеовеличины, такие как направление и скорость ветра, видимость, явления погоды, количество и форма облачности, нижняя и верхняя граница облачности), а также ознакомиться с разнообразными материалами по авиационной метеорологии и подборкой полезных ссылок на эту тему.

Сайт Метеоцентр.Азия посвящён разработке технологий оптимизации авиаметеорологического обслуживания, включая проектирование и перспективное создание нескольких автоматизированных авиаметеорологических систем:
- система выпуска высокодетальных прогностических карт явлений погоды для нижнего воздушного пространства по России и ближнему зарубежью;
- система верификации прогнозов TAF (выпускаемых синоптиками официальных АМСГ РФ и ближнего зарубежья) и AUTOTAF (выпускаемых сайтом Метеоцентр.Азия) - выявление ошибок, онлайн-сопоставление с фактической погодой METAR, автоматическое внесение коррективов в прогнозы при резком отклонении фактической погоды от прогноза, подсчёт оправдываемости прогнозов по элементам и в целом;
- система обработки, анализа и отображения авиаметеорологической информации для применения провайдерами метеорологической информации.


Погода Екатерино-Никольское - сегодня

Время (UTC), дата Ветер
(°,м/с) 
Видим.   Явления Облачность Т
(°С)
Тd
(°С)
f(%) Тe
(°С)
Pmin
(гПа)
dP
(гПа)
Po
(мм)
O2
(г/м3)
Тmin Tmax R s Состояние
почвы
09 25.05.17 070 (В) 20000 м    10/5 600 м кучево-дожд., средняя, верхняя 
[Cb calv|Ac trans|Ci fib]
+16.4 +5.4 48 +17  1012.1  0.1  753  285    +16.9       
12 25.05.17 тихо ()   20000 м    3/0 верхняя 
[Ci fib]
+9.4 +6.1 80 +9  1013.4  1.1  754  293           
15 25.05.17 310 (СЗ) 20000 м    4/0 верхняя 
[Ci fib]
+7.8 +6.8 93 +8  1013.5  754  294           
18 25.05.17 310 (СЗ) 20000 м    3/0 верхняя 
[Ci fib]
+6.1 +5.3 95 +6  1013.5  0.1  753  296           
21 25.05.17 320 (СЗ) 0500 м  туман  10/0 верхняя 
[Ci fib]
+5.6 +5 96 +6  1013.6  0.1  754  297  +4.9        влажная 
00 26.05.17 240 (ЮЗ) 20000 м  {туман}  4/0 верхняя 
[Ci fib]
+14.5 +6.7 59 +16  1013.5  0.2  754  287           
03 26.05.17 240 (ЮЗ) 20000 м    4/0 средняя, верхняя 
[Ac trans|Ci fib]
+18.6 +5.9 43 +20  1012  -1.4  753  283           
06 26.05.17 240 (ЮЗ) 20000 м    4/0 средняя, верхняя 
[Ac trans|Ci fib]
+21.6 +4.2 32 +22  1010.2  -1.7  751  280           
09 26.05.17 190 (Ю) 20000 м    4/0 средняя, верхняя 
[Ac trans|Ci fib]
+21 +4 33 +21  1009.3  -1.7  751  280    +21.9       
12 26.05.17 210 (ЮЗ) 20000 м    5/0 средняя, верхняя 
[Ac trans|Ci fib]
+12.7 +6.3 65 +14  1010.1  0.6  751  288           
15 26.05.17 310 (СЗ) 20000 м    5/0 верхняя 
[Ci fib]
+8.9 +7.5 91 +9  1010.6  0.4  751  292           
18 26.05.17 300 (СЗ) 20000 м    5/0 верхняя 
[Ci fib]
+7.6 +6.2 91 +9  1010.1  -0.5  751  293           
00 27.05.17 210 (ЮЗ) 20000 м    3/0 верхняя 
[Ci fib]
+17.1 +7.8 54 +18  1011.1  0.8  752  284           
03 27.05.17 180 (Ю) 20000 м    4/3 600 м кучево-дожд., верхняя 
[Cb cap|Ci fib]
+22.7 +3.3 28 +23  1009.7  -1.3  751  279           
06 27.05.17 160 (Ю) 20000 м    4/3 600 м кучево-дожд., верхняя 
[Cb cap|Ci fib]
+25.1 +3.2 24 +25  1007.3  -1.3  749  276           
12 27.05.17 180 (Ю) 20000 м    5/0 средняя, верхняя 
[Ac trans|Ci fib]
+16.1 +7.4 56 +16  1006.5  0.2  748  284           
15 27.05.17 080 (В) 20000 м    5/0 верхняя 
[Ci fib]
+9.4 +7.1 86 +10  1006.2  -0.4  748  290           
18 27.05.17 290 (З) 20000 м    4/0 верхняя 
[Ci fib]
+7.1 +6 93 +8  1005.2  -1  747  293           
00 28.05.17 180 (Ю) 20000 м    3/0 верхняя 
[Ci fib]
+18.9 +8.5 51 +20  1004.1  -0.8  747  280           
03 28.05.17 180 (Ю) 20000 м    6/0 верхняя 
[Ci fib]
+26 +5.2 26 +26  1001.6  -2.2  745  273           
06 28.05.17 180 (Ю) 6{11}  20000 м    10/6 600 м средняя, верхняя 
[Sc|Ac trans|Ci fib]
+26 +5.1 26 +26  998.8  -2.9  743  273           
15 28.05.17 270 (З) 3{14}  20000 м    10/8 600 м кучево-дожд., средняя, верхняя 
[Cb cap|Ac As|Ci fib]
+15.8 -3.3 27 +16  998.3  1.9  743  283           
18 28.05.17 240 (ЮЗ) н/о    н/о 
+12.4 -1.6 38 +13  1004.1  1.9  747  288           
00 29.05.17 230 (ЮЗ) 20000 м    3/3 600 м верхняя 
[Cu med, cong|Ci fib]
+16.6 -2.2 28 +17  1004.8  0.4  747  284           
12 29.05.17 150 (ЮВ) 20000 м    10/6 600 м средняя, верхняя 
[Sc diur, vesp|Ac As|Ci fib]
+14.9 +0.4 37 +16  999.5  -1.3  743  284           
Время (UTC), дата Ветер
(°,м/с) 
Видим.   Явления Облачность Т
(°С)
Тd
(°С)
f(%) Тe
(°С)
Pmin
(гПа)
dP
(гПа)
Po
(мм)
O2
(г/м3)
Тmin Tmax R s Состояние
почвы

Для получения пояснительной информации подведите курсор к названию столбца.

ПОГОДА Екатерино-Никольское - архив

Всё, что Вы хотите узнать о погоде Екатерино-Никольское - удобно и подробно!

Выберите нужную дату (начиная с 1 января 2015* года) и нажмите кнопку "Найти".
Будут отображены архивные сводки погоды по пункту Екатерино-Никольское, начиная с указанной даты.


Отображать данные в формате CSV (для использования в таблицах Excel)


Внимание! Наш архив погоды предназначен исключительно для личного некоммерческого использования в познавательных целях. Если Вам необходимы официальные справки о состоянии погоды (для производственных, юридических, коммерческих и т.п. целей), обращайтесь в органы Росгидромета.

*Примечание: данная дата относится к архиву по метеостанциям СССР (Россия, СНГ, Балтия).
Архив по метеостанциям Зарубежной Европы и Азии (кроме Китая) хранится 10 дней, по другим регионам земного шара (Китай, Африка, Америка, Австралия, Океания) - 1 день.

Екатерино-Никольское - район местоположения метеостанции


Название, широта, долгота, высота метеостанции:
Екатерино-Никольское 47.7°ш. 131°д. 73 м над ур. моря [Российская Федерация]

Дополнительная информация

В oтличие oт бoльшинства пoгoдных сайтoв мы публикуем пoдрoбную метеoинфoрмацию в детальнoм прoфессиoнальнoм фoрмате.

Характеристики температуры и влажнoсти вoздуха измеряются на высoте 2 м в тени вдали oт зданий и деревьев.
Скoрoсть ветра измеряется на высoте 10 м (на урoвне рoста челoвека скoрoсть ветра ниже в 1.5-2 раза). Если метеoстанция нахoдится в гoрoде или в лесу, тo скoрoсть ветра занижена на 2-4 м/с пo сравнению с oткрытым местoм. Скoрoсть ветра над акватoриями крупных рек и oзёр, а также на вершинах хoлмoв на 2-5 м/с выше, чем в oбычных услoвиях.
Атмoсфернoе давление в разных тoчках местнoсти мoжет значительнo oтличаться oт давления на метеoстанции, в зависимoсти oт услoвий рельефа (при пoдъёме на 10 м давление пoнижается примернo на 1 мм рт.ст.).